Карточка аэропорта UHSS

Внимание!
Информация на этой странице в стадии наполнения.
Если вы не увидели какой-то информации, или заметили неточность - пожалуйста сообщите нам!
Спасибо!
Команда RU-STAFF
Название аэропортаХомутово
Название аэропорта (англ.)Khomutovo
Превышение59 ft. (18 m.)
Координаты46°53.316', 142°43.020000000001'
Высота перехода1600m
Эшелон переходаQFE>=758mm: FL70; 758mm>QFE>=731mm: FL80; QFE<731mm: FL90
Коды ответчика6601-6627
Зона ОрВДХабаровск РПИ (UHHH)
Данные METARUHSS 211000Z 36009MPS 9999 SCT007 BKN030 08/06 Q1010 R01/70D NOSIG RMK MT OBSC QFE756/1008
Проноз погоды (TAF)UHSS 210750Z 2109/2215 36008MPS 9999 BKN004 BKN030CB BECMG 2121/2124 BKN030CB
NOTAMshow/hide NOTAM
AWOS   TABLE

Информация о ВПП

ВПП Длина ВПП (м.) Покрытие Курс ВПП Частота ILS
013401Железобетон12109.5
193401Железобетон192111.7

Диспетчерские позиции

Позывной Наименование органа УВД Частота
UHSS_TWRЮжно-Сахалинск−Старт122.0
UHSS_R_APPЮжно-Сахалинск−Круг120.6



Спутниковое изображение